User: anonymous   Login
Location: Bonn
(50.7330°N, 7.1000°E)
Time: 20:35:14
(UTC+02:00)
Language:

Cosmos 1933 Rocket - Orbit

View from above orbital plane
View from above orbital plane
View from above satellite
View from above satellite

Ground track
Ground track

The orbit data is extracted from the following two-line orbital elements,

1 18959U 88020B   16274.17736486  .00000154  00000-0  15959-4 0  9995
2 18959  82.5387 153.7803 0015352 275.4624  84.4839 14.83299874542035
Epoch (UTC): 30 September 2016 04:15:24
Eccentricity: 0.0015352
inclination: 82.5387°
perigee height: 608 km
apogee height: 629 km
right ascension of ascending node: 153.7803°
argument of perigee: 275.4624°
revolutions per day: 14.83299874
mean anomaly at epoch: 84.4839°
orbit number at epoch: 54203

The dashed part of the orbit path shows where the satellite is in the earth's shadow,  

DLR